FENGYUN 1C DEB, 29928

Orbit data source: Space-Track

FENGYUN 1C DEB, 29928 is space debris in SSO originally from a launch on Mon, 10 May 1999 UTC launched from the Taiyaun Space Center, China (TSC). Fengyun 1C debris stems from the Chinese weather satellite Fengyun-1C, which was intentionally destroyed by a Chinese anti-satellite missile in 2007. This event dramatically increased the amount of space debris, with thousands of trackable fragments posing hazards to satellites and human spaceflight. The Fengyun 1C debris cloud has become a focal point in discussions about space sustainability and the need for international regulations to prevent the creation of new debris.

Loading next visibility...
Identifier
29928, 1999-025JA
Orbit
SSO
Country
Flag of CNCN / PRC
Related business
Manufacturer
Unknown
Mission
Spacecraft
Bus & Motor
Unknown
Mass
Unknown
Launch date (UTC)
1999-05-10 (27 years ago)
Launch vehicle
Unknown
Launch site
Taiyaun Space Center, China (TSC)
Object type
Payload
Rocket body
Debris
Shape & HBR
Unknown shape, 0.1 m
Radar Cross Section
Medium (>0.1 m² and <1 m²)

Expand to show TLE details & history
Last TLE update: 13 hours ago

TLE from 13 hours ago
0 FENGYUN 1C DEB
1 29928U 99025JA  26255.06765968  .00000439  00000-0  37234-3 0  9990
2 29928  99.5604 291.3889 0143147  95.4781 294.8460 13.88456480992841
Epoch: 2026-09-12T01:37Z
TLE epoch observation values (Epoch: 2026-09-12T01:37:25.796Z)
Latitude
28.43288°
Longitude
-89.25522°
Altitude
894.743 km
Speed
7.429 km/s
True Right ascension
19h 04m 44s
True Declination
28° 17' 31"
Sunlit
Object was in daylight at epoch
Visualization orbit readout
Latitude
Unknown
Longitude
Unknown
Altitude
Unknown
Speed
Unknown
Apparent Right ascension
Unknown
Apparent Declination
Unknown
Sunlit
N/A
Visualization observer readout
Local Sidereal Time
06:41:16
Azimuth
Unknown
Elevation
Unknown
Doppler factor
Unknown
Orbital elements
Apogee altitude
1,035.919 km
Perigee altitude
826.655 km
Semi-major axis
7,309.424 km
Eccentricity
0.01431
Inclination
99.5604°
RAAN
291.3889°
Arg. of periapsis
95.4781°
True anomaly
293.34638°
Mean anomaly
294.846°
Eccentric anomaly
294.0973°
Mean motion
3.47311 °/min
Orbital period
103.65 mins
BSTAR
0.00037234
Loading maneuver chart data...
Computing Atmospheric mass density...
Loading historical data...
Loading historical data...
Loading historical data...
Loading historical data...
Loading historical data...
Loading historical data...
Loading historical data...

Documentation

Showing up to 5 results
|